Weather History for KRIL - September, 2014

Change the Weather History Date:

Monday, September 1, 2014

  Actual Average Record
Temperature  
Mean Temperature 64 °F 66 °F  
Max Temperature 82 °F 84 °F 98 °F (1954)
Min Temperature 45 °F 49 °F 31 °F (1962)
Degree Days  
Heating Degree Days 1 1  
Month to date heating degree days 1 1  
Since 1 July heating degree days 18 8  
Cooling Degree Days 0 2  
Month to date cooling degree days 0 2  
Year to date cooling degree days 529 518  
Growing Degree Days 14 (Base 50)    
Moisture  
Dew Point 38 °F    
Average Humidity 50    
Maximum Humidity 82    
Minimum Humidity 17    
Precipitation  
Precipitation 0.00 in 0.05 in 0.76 in (1921)
Month to date precipitation 0.00 0.05  
Year to date precipitation 8.13 9.02  
Sea Level Pressure  
Sea Level Pressure 29.93 in    
Wind  
Wind Speed 7 mph (SW)    
Max Wind Speed 25 mph    
Max Gust Speed 31 mph    
Visibility 10 miles    
Events      
T = Trace of Precipitation, MM = Missing Value Source: NWS Daily Summary

Daily Weather History Graph

Daily Weather History Graph

Search for Another Location

Airport or City:

Trip Planner

Search our weather history database for the weather conditions in past years. The results will help you decide how hot, cold, wet, or windy it might be!

Date:

Astronomy

Sep. 01, 2014 Rise Set
Actual Time 6:39 AM MDT 7:41 PM MDT
Civil Twilight 6:11 AM MDT 8:09 PM MDT
Nautical Twilight 5:38 AM MDT 8:42 PM MDT
Astronomical Twilight 5:04 AM MDT 9:16 PM MDT
Moon 1:26 PM MDT (9/1) 11:47 PM MDT (9/1)
Length of Visible Light 13h 57m
Length of Day
13h 02m
Waxing Crescent, 43% of the Moon is Illuminated
Sep 1
Waxing Crescent
Sep 2
First Quarter
Sep 8
Full
Sep 15
Last Quarter
Sep 24
New

Hourly Weather History & Observations

Time (MDT) Temp. Windchill Dew Point Humidity Pressure Visibility Wind Dir Wind Speed Gust Speed Precip Events Conditions
12:53 AM 60.1 °F - 42.1 °F 51% 29.86 in 10.0 mi WSW 4.6 mph - N/A   Clear
1:53 AM 53.1 °F - 43.0 °F 69% 29.89 in 10.0 mi ESE 5.8 mph - N/A   Clear
2:53 AM 51.1 °F - 41.0 °F 68% 29.91 in 10.0 mi SSE 4.6 mph - N/A   Clear
3:53 AM 51.1 °F - 42.1 °F 71% 29.92 in 10.0 mi Calm Calm - N/A   Clear
4:53 AM 50.0 °F - 43.0 °F 77% 29.92 in 10.0 mi Calm Calm - N/A   Clear
5:53 AM 46.0 °F 44.8 °F 41.0 °F 83% 29.94 in 10.0 mi East 3.5 mph - N/A   Clear
6:53 AM 46.0 °F - 39.9 °F 79% 29.97 in 10.0 mi Calm Calm - N/A   Clear
7:53 AM 50.0 °F - 41.0 °F 71% 29.99 in 10.0 mi Calm Calm - N/A   Clear
9:53 AM 60.1 °F - 44.1 °F 55% 29.97 in 10.0 mi Calm Calm - N/A   Clear
10:53 AM 64.0 °F - 42.1 °F 45% 29.96 in 10.0 mi Variable 3.5 mph - N/A   Clear
11:53 AM 71.1 °F - 37.9 °F 30% 29.94 in 10.0 mi NNW 4.6 mph - N/A   Clear
12:53 PM 75.0 °F - 39.0 °F 27% 29.90 in 10.0 mi Variable 5.8 mph - N/A   Clear
1:41 PM 79.0 °F - 34.0 °F 20% 30.08 in 10.0 mi WSW 16.1 mph - N/A   Clear
1:53 PM 79.0 °F - 34.0 °F 20% 29.90 in 10.0 mi West 16.1 mph 23.0 mph N/A   Clear
2:53 PM 81.0 °F - 33.1 °F 18% 29.88 in 10.0 mi West 24.2 mph 28.8 mph N/A   Clear
3:53 PM 81.0 °F - 32.0 °F 17% 29.87 in 10.0 mi West 11.5 mph 27.6 mph N/A   Partly Cloudy
4:53 PM 81.0 °F - 32.0 °F 17% 29.86 in 10.0 mi West 12.7 mph - N/A   Partly Cloudy
5:53 PM 81.0 °F - 33.1 °F 18% 29.87 in 10.0 mi West 15.0 mph - N/A   Mostly Cloudy
6:53 PM 78.1 °F - 34.0 °F 20% 29.89 in 10.0 mi NW 9.2 mph - N/A   Scattered Clouds
7:53 PM 72.0 °F - 34.0 °F 25% 29.92 in 10.0 mi Variable 3.5 mph - N/A   Clear
8:53 PM 71.1 °F - 33.1 °F 25% 29.94 in 10.0 mi West 4.6 mph - N/A   Clear
9:53 PM 61.0 °F - 41.0 °F 48% 29.97 in 10.0 mi ESE 6.9 mph - N/A   Clear
10:53 PM 60.1 °F - 39.0 °F 46% 29.97 in 10.0 mi ESE 11.5 mph - N/A   Clear
11:53 PM 57.9 °F - 39.0 °F 49% 29.98 in 10.0 mi ESE 8.1 mph - N/A   Clear